Location: Rounton
(54.4000°N, 1.3500°W)
Time: 19:25:33
(UTC+01:00)

S-56A Canister/Altair - Pass Details

Date: 09 September 2024
Orbit: 636 x 2487 km, 38.9° (Epoch: 06 October)

Event Time Altitude Azimuth Distance (km) Brightness Sun altitude
Rises 04:29:37 0° 269° (W) 5,418 - -16.6°
Reaches altitude 10° 04:36:21 10° 244° (WSW) 4,783 - -15.8°
Maximum altitude 04:40:48 12° 224° (SW) 4,764 - -15.3°
Exits shadow 04:44:05 11° 211° (SSW) 4,952 11.1 -14.9°
Drops below altitude 10° 04:45:29 10° 205° (SSW) 5,078 11.2 -14.7°
Sets 04:53:23 0° 181° (S) 6,148 11.8 -13.7°
